Weather History for Fort Myers, FL

Change the Weather History Date:

Monday, November 12, 2012

  Actual Average Record
Temperature  
Mean Temperature 73 °F 72 °F  
Max Temperature 82 °F 82 °F 91 °F (1979)
Min Temperature 64 °F 63 °F 43 °F (1956)
Degree Days  
Heating Degree Days 0 0  
Month to date heating degree days 5 0  
Since 1 July heating degree days 8 2  
Cooling Degree Days 8 8  
Month to date cooling degree days 54 103  
Year to date cooling degree days 4154 3751  
Growing Degree Days 22 (Base 50)    
Moisture  
Dew Point 63 °F    
Average Humidity 73    
Maximum Humidity 93    
Minimum Humidity 52    
Precipitation  
Precipitation T in 0.08 in 1.10 in (1904)
Month to date precipitation 0.66 1.00  
Year to date precipitation 47.43 53.26  
Sea Level Pressure  
Sea Level Pressure 30.18 in    
Wind  
Wind Speed 7 mph (ENE)    
Max Wind Speed 18 mph    
Max Gust Speed 24 mph    
Visibility 10 miles    
Events      
T = Trace of Precipitation, MM = Missing Value Source: NWS Daily Summary

Daily Weather History Graph

Daily Weather History Graph

Search for Another Location

Airport:

Trip Planner

Search our weather history database for the weather conditions in past years. The results will help you decide how hot, cold, wet, or windy it might be!

Date:

Astronomy

Nov. 12, 2012 Rise Set
Actual Time 6:44 AM EST 5:38 PM EST
Civil Twilight 6:20 AM EST 6:02 PM EST
Nautical Twilight 5:52 AM EST 6:30 PM EST
Astronomical Twilight 5:25 AM EST 6:57 PM EST
Moon 5:13 AM EST (11/12) 4:39 PM EST (11/12)
Length of Visible Light 11h 42m
Length of Day
10h 53m
Waning Crescent, 2% of the Moon is Illuminated
Nov 12
Waning Crescent
Nov 13
New
Nov 20
First Quarter
Nov 28
Full
Dec 6
Last Quarter

Hourly Weather History & Observations

Time (EST) Temp. Heat Index Dew Point Humidity Pressure Visibility Wind Dir Wind Speed Gust Speed Precip Events Conditions
1:53 AM 66.9 °F - 61.0 °F 81% 30.19 in 10.0 mi ESE 6.9 mph - N/A   Mostly Cloudy
2:53 AM 66.9 °F - 62.1 °F 84% 30.17 in 10.0 mi East 3.5 mph - N/A   Overcast
3:53 AM 66.9 °F - 62.1 °F 84% 30.18 in 10.0 mi ENE 3.5 mph - N/A   Overcast
4:53 AM 64.9 °F - 62.1 °F 90% 30.17 in 10.0 mi NE 4.6 mph - N/A   Scattered Clouds
5:53 AM 64.9 °F - 62.1 °F 90% 30.18 in 10.0 mi NE 5.8 mph - N/A   Clear
6:53 AM 64.9 °F - 62.1 °F 90% 30.19 in 10.0 mi ENE 5.8 mph - N/A   Clear
7:53 AM 68.0 °F - 63.0 °F 84% 30.20 in 10.0 mi ENE 3.5 mph - N/A   Clear
8:53 AM 73.9 °F - 64.9 °F 73% 30.21 in 10.0 mi East 9.2 mph - N/A   Partly Cloudy
9:53 AM 79.0 °F - 64.9 °F 62% 30.22 in 10.0 mi East 11.5 mph 18.4 mph N/A   Clear
10:53 AM 80.1 °F 81.9 °F 64.9 °F 60% 30.22 in 10.0 mi ESE 11.5 mph 19.6 mph N/A   Scattered Clouds
11:53 AM 75.9 °F - 66.0 °F 71% 30.20 in 10.0 mi SSE 15.0 mph 24.2 mph N/A   Overcast
12:53 PM 75.9 °F - 63.0 °F 64% 30.18 in 10.0 mi ESE 13.8 mph 24.2 mph 0.00 in   Overcast
1:53 PM 79.0 °F - 63.0 °F 58% 30.16 in 10.0 mi East 10.4 mph - N/A   Overcast
2:53 PM 78.1 °F - 61.0 °F 56% 30.16 in 10.0 mi East 8.1 mph - N/A   Overcast
3:53 PM 77.0 °F - 63.0 °F 62% 30.14 in 10.0 mi ENE 8.1 mph - N/A   Overcast
4:53 PM 78.1 °F - 59.0 °F 52% 30.14 in 10.0 mi ENE 4.6 mph - N/A   Overcast
5:53 PM 75.0 °F - 60.1 °F 60% 30.15 in 10.0 mi NE 6.9 mph - N/A   Overcast
6:53 PM 75.0 °F - 60.1 °F 60% 30.15 in 10.0 mi NE 4.6 mph - N/A   Overcast
7:53 PM 73.0 °F - 63.0 °F 71% 30.16 in 10.0 mi NE 5.8 mph - N/A   Scattered Clouds
8:53 PM 73.0 °F - 64.9 °F 76% 30.17 in 10.0 mi ENE 6.9 mph - N/A   Clear
9:53 PM 71.1 °F - 64.9 °F 81% 30.17 in 10.0 mi ENE 4.6 mph - N/A   Clear
10:53 PM 69.1 °F - 64.0 °F 84% 30.17 in 10.0 mi East 3.5 mph - N/A   Clear
11:53 PM 68.0 °F - 64.0 °F 87% 30.16 in 10.0 mi NE 3.5 mph - N/A   Clear